Regional Weather Roundup
Issued by NWS Wakefield, VA

Home | Current Version | Previous Version | Graphics & Text | Print | Product List | Glossary On
Versions: 1 2 3 4 5 6 7 8 9 10 11 12 13 14 15 16 17 18 19 20 21 22 23 24 25 26 27 28 29 30 31 32 33 34 35 36 37 38 39 40 41 42 43 44 45 46 47 48 49
000
ASUS41 KAKQ 291313
RWRAKQ

REGIONAL WEATHER ROUNDUP
NATIONAL WEATHER SERVICE WAKEFIELD VA
900 AM EDT SUN MAR 29 2015

Note: "fair" indicates few or no clouds below 12,000 feet with no
significant weather and/or obstructions to visibility. * = Denotes
station may not report precipitation (e.g., rain,snow,etc.),
thunder or fog.

VAZ042-051-052>054-056-291400-
NORTHERN VIRGINIA

CITY           SKY/WX    TMP DP  RH WIND       PRES   REMARKS
WASH NATIONAL  SUNNY     31  10  41 NW12      30.40R WCI  22
DULLES         SUNNY     27   8  44 NW14      30.39R WCI  16
FORT BELVOIR   SUNNY     29   7  40 NW14      30.40R WCI  18
QUANTICO       SUNNY     31   7  36 N14G26    30.42R WCI  21
FREDERICKSBRG* SUNNY     31   7  37 NW8G17    30.40S
STAFFORD*      SUNNY     28   7  40 NW15      30.45R WCI  16
WARRENTON      SUNNY     31  13  47 NW12      30.39S WCI  22
CULPEPER*      SUNNY     30   7  37 N5        30.40S
MANASSAS*      SUNNY     28  10  47 NW9G17    30.40S
LEESBURG*      SUNNY     30  12  47 NW8       30.39S
WINCHESTER     SUNNY     30   1  29 NW10G16   30.36S WCI  21
FRONT ROYAL*   FAIR      28   5  37 CALM      30.36S
LURAY*         FAIR      30  10  43 S5        30.37R
$$

VAZ048-049-060>072-079>083-291400-
CENTRAL AND SOUTH CENTRAL VIRGINIA

CITY           SKY/WX    TMP DP  RH WIND       PRES   REMARKS
RICHMOND       SUNNY     32   6  33 N13       30.41R WCI  22
CHESTERFIELD*  NOT AVBL
PETERSBURG*    SUNNY     32   6  33 N9        30.42R
HANOVER        SUNNY     30   7  37 VRB7      30.42R
TAPPAHANNOCK*  SUNNY     30   5  34 NW7       30.40S
QUINTON*       FAIR      28   7  40 N14G21    30.41R WCI  17
CHARLOTTSVILLE SUNNY     30   5  34 VRB3      30.38R
GORDONSVILLE*  FAIR      29   6  37 NW6       30.39R
ORANGE*        SUNNY     32  18  55 CALM      30.40S
LOUISA*        SUNNY     30  12  47 CALM      30.38R
BUMPASS*       FAIR      29   9  42 NW5       30.39R
FARMVILLE*     SUNNY     31  19  62 CALM      30.39S
CREWE*         FAIR      30  12  47 MISG      30.40R
FORT PICKETT*  FAIR      30  11  45 N7        30.40R
CHASE CITY*    FAIR      32  15  48 CALM      30.40R
CLARKSVILLE*   FAIR      32  14  47 NW5       30.40S
SOUTH HILL*    SUNNY     28  12  52 CALM      30.46S
LAWRENCEVILLE* FAIR      30  12  48 N5        30.41R
EMPORIA*       SUNNY     30  12  47 NW7       30.44R
$$

VAZ088>098-291400-
SOUTHEAST VIRGINIA

CITY           SKY/WX    TMP DP  RH WIND       PRES   REMARKS
NORFOLK        SUNNY     32   8  36 N12G21    30.38R WCI  23
VIRGINIA BEACH MOSUNNY   35   9  33 NW17G26   30.37R WCI  25
NORFOLK NAVAL  MOSUNNY   35   8  32 N14       30.41R
WEST POINT*    SUNNY     32   5  31 NW9G20    30.42S
SALUDA*        FAIR      30  11  44 N14G20    30.39R WCI  20
NEWPORT NEWS   SUNNY     34  10  37 NW13      30.40  WCI  25
LANGLEY AFB    SUNNY     31   8  37 N12G23    30.39R WCI  22
FORT EUSTIS    SUNNY     31  11  44 N9G20     30.39R
WILLIAMSBURG*  SUNNY     30  12  47 N12G20    30.41R WCI  21
HR EXEC AP*    FAIR      32  10  40 N8G16     30.41R
FRANKLIN*      SUNNY     30   8  39 N10G16    30.42R WCI  21
WAKEFIELD      SUNNY     31   7  36 N8        30.41R
$$

VAZ020-022-025-037-045-291400-
WEST CENTRAL AND SOUTHWEST VIRGINIA

CITY           SKY/WX    TMP DP  RH WIND       PRES   REMARKS
STAUNTON*      SUNNY     26   6  44 CALM      30.38R
WAYNESBORO*    FAIR      24   6  46 W3        30.34S
HOT SPRINGS VA SUNNY     16   1  51 NW10      30.19R WCI   3
LYNCHBURG      SUNNY     30   8  39 NW6       30.39R
DANVILLE       SUNNY     33  13  43 N6        30.42R
SOUTH BOSTON*  FAIR      31  13  47 NW7       30.42R
MARTINSVILLE   SUNNY     31  11  44 N5        30.43R
ROANOKE        SUNNY     29   6  38 W5        30.40R
BLACKSBURG     SUNNY     23   8  53 W6        30.37R
DUBLIN*        SUNNY     27  11  51 NW3       30.36R
MARION*        SUNNY     26   9  48 SW8       30.35R
HILLSVILLE*    SUNNY     23   7  50 NW7       30.30R
RICHLANDS*     FAIR      23   9  54 CALM      30.31R
WISE*          SUNNY     27  10  50 S3        30.31R
ABINGDON*      SUNNY     28  12  51 CALM      30.35S
$$

MDZ021>025-VAZ099-100-291400-
SOUTHERN MARYLAND AND THE DELMARVA PENINSULA

CITY           SKY/WX    TMP DP  RH WIND       PRES   REMARKS
PATUXENT RIVER SUNNY     30   8  39 NW18G29   30.38R WCI  18
BAY BRIDGE APT   N/A     30  10  43 NW13G18   30.37S WCI  20
LEONARDTOWN    SUNNY     30   9  40 NW8G17    30.39R
DOVER          SUNNY     30  10  44 NW14G23   30.33R WCI  19
GEORGETOWN     SUNNY     29   9  43 NW10      30.34R WCI  20
EASTON         SUNNY     32  16  51 N9G23     30.39R
CAMBRIDGE      SUNNY     32  12  43 NW14G23   30.36R WCI  22
SALISBURY      SUNNY     30  10  43 NW16G23   30.34R WCI  19
OCEAN CITY     SUNNY     30  10  43 N14G23    30.33R WCI  19
WALLOPS ISLAND FAIR      31  10  41 N16       30.35R WCI  20
ACCOMACK*      SUNNY     32  12  43 N14G24    30.36R WCI  22
$$

NCZ012>017-030>032-291400-
NORTH CENTRAL AND EASTERN NORTH CAROLINA

CITY           SKY/WX    TMP DP  RH WIND       PRES   REMARKS
ROANOKE RAPIDS FAIR      32  12  43 N8        30.43R
RALEIGH        SUNNY     32  13  45 VRB5      30.43R
ELIZABETH CITY SUNNY     32  13  45 NW16      30.39R WCI  21
AHOSKIE*       SUNNY     30  10  44 N6        30.43R
EDENTON*       SUNNY     32  13  45 N16       30.41R WCI  21
CURRITUCK*     SUNNY     32   8  36 N10G20    30.39R WCI  23
KILL DEVIL HLS SUNNY     33  12  42 NW9G17    30.36R
MANTEO         SUNNY     33   9  36 N15G25    30.38R WCI  23
CAPE HATTERAS  SUNNY     34  13  41 NW14G22   30.37R WCI  25
TARBORO*       FAIR      32  17  52 N6        30.44R
GOLDSBORO      SUNNY     33  18  54 N8        30.41R
WASHINGTON     SUNNY     31  16  52 N10G16    30.42R WCI  23
GREENVILLE     SUNNY     32  18  55 N8        30.43R
NEW BERN       SUNNY     35  13  40 N14G23    30.42R
WILMINGTON     SUNNY     36  15  42 N9        30.42R
$$

VAZ048-291400-
ELSEWHERE

CITY           SKY/WX    TMP DP  RH WIND       PRES   REMARKS
HARRISBURG PA  SUNNY     28  11  48 NW13      30.35R WCI  17
BALTIMORE      SUNNY     29   9  43 NW7       30.37R
ANNAPOLIS      SUNNY     30  14  51 NW14      30.37R WCI  19
ANDREWS AFB    SUNNY     29   8  42 NW14      30.37R WCI  18
PHILADELPHIA   SUNNY     30   7  37 N16       30.33R WCI  19
HENDERSON NC   SUNNY     31  11  43 N7        30.41R
GREENSBORO     SUNNY     31   9  39 N6        30.39R
ROCKY MOUNT      N/A     34  14  43 N10       30.43R
$$

VAZ100-291400-
MARINE

STATION/POSITION TIME  TEMP    WIND        PRES    WAVE   SWELL
                       AIR SEA DIR/SP/G            HT/PER HT/PER
                 (UTC) (F)     (DEG/KT/KT) (MB)    (FT/S) (FT/S)
BRANDYWINE LGT   1206   28 39  350/ 22/ 28 1026.2R
CAPE MAY NJ      1206   29 42  330/ 17/ 29 1025.8R
LEWES DE         1206   29 41  320/ 19/ 22 1026.3R
15NM E FENWICK I 1250   31 39              1025.5R   6/ 6
OCEAN-CITY-INLET 1206   28 39  330/ 12/ 17 1026.3R
WACHAPREAGUE VA  1206   33 40  350/  3/  6 1027.4R
THOMAS POINT MD  1300                        N/A
COVE POINT MD    1206   27     330/ 15/ 19 1028.0R
SOLOMONS ISLAND  1200      42                N/A
BISHOPS HEAD MD  1200          320/ 14/ 17 1027.4R
PINEY POINT MD   1200          340/ 20/ 22   N/A
CAMBRIDGE MD     1206   29 42  310/ 15/ 20 1027.8R
LEWISETTA VA     1206   30 42              1028.5R
RAPPAHANNOCK LGT 1200          330/ 22/ 28 1028.1R
STINGRAY PT      1300   31 43  330/ 16/ 21   N/A     2/ 3
YORK RVR RNG VA  1206   29     330/ 16/ 19 1027.8R
YORKTOWN VA      1206   29 45  330/ 16/ 20 1028.6R
DOMINION TERM VA 1206   30     350/  6/ 14 1028.8R
KIPTOPEKE VA     1200      47  350/ 16/ 23   N/A
CHES BAY BRIDGE  1206   31 43  330/ 20/ 23 1027.9R
CAPE HENRY VA    1206   31     330/ 19/ 22 1026.6R
CHESAPEAKE LGHT  1200   31     340/ 23/ 24 1027.7R
WILLOUBY STN VA  1206   29     330/ 15/ 18 1029.0R
S CRANEY ISL VA  1200          340/ 12/ 16 1028.5R
CAPE HENRY BUOY  1228      40                N/A     4/ 5
1ST LANDING BUOY 1300   32     330/ 17/ 23 1028.4R   3/ 3
OFFSHORE WE BUOY 1211      40                N/A     5/ 5   2/ 9
64NM E OF VA BCH 1250   34 51  340/ 19/ 27 1026.0R   6/ 6   2/ 9
DUCK PIER NC     1206   32 42  320/ 19/ 22 1026.5R
44056 DUCK FRF   1211      42                N/A     4/ 6
OREGON INLET NC  1206   33 45  310/ 14/ 19 1027.6R
HATTERAS NC      1206   35 48  350/ 18/ 24 1028.0R
CAPE LOOKOUT NC  1300   35     350/ 15/ 18 1029.0R
$$


USA.gov is the U.S. government's official web portal to all federal, state and local government web resources and services.